Regional Weather Roundup
Issued by NWS Cleveland, OH

Home | Current Version | Previous Version | Text Only | Print | Product List | Glossary Off
Versions: 1 2 3 4 5 6 7 8 9 10 11 12 13 14 15 16 17 18 19 20 21 22 23 24 25 26 27 28 29 30 31 32 33 34 35 36 37 38 39 40 41 42 43 44 45 46 47 48 49 50

000
ASUS41 KCLE 280610
RWRCLE
OHIO REGIONAL WEATHER ROUNDUP
NATIONAL WEATHER SERVICE WILMINGTON, OH
200 AM EDT WED SEP 28 2016

NOTE: "FAIR" INDICATES FEW OR NO CLOUDS BELOW 12,000 FEET WITH NO
SIGNIFICANT WEATHER AND/OR OBSTRUCTIONS TO VISIBILITY.

OHZ001>008-015>018-024>027-034-035-043-044-280700-
   NORTHWEST OHIO

CITY           SKY/WX    TMP DP  RH WIND       PRES   REMARKS
DEFIANCE       FAIR      50  45  83 CALM      29.81F
FINDLAY        FAIR      54  45  71 S6        29.81F
TOLEDO EXPRESS FAIR      47  47 100 CALM      29.81S
TOLEDO EXEC    FAIR      50  44  80 SE5       29.82F
LIMA           FAIR      55  49  80 S3        29.83R
$$

OHZ009>014-019>023-028>033-038-089-280700-
   NORTHEAST OHIO

CITY           SKY/WX    TMP DP  RH WIND       PRES   REMARKS
CLE-HOPKINS    MOCLDY    63  43  48 S10       29.86S
CLE-LAKEFRONT  FAIR      62  44  51 S10       29.83S
CUY CO. ARPT   NOT AVBL
LORAIN-ELYRIA  FAIR      56  44  64 S7        29.85S
ASHTABULA      FAIR      53  45  74 S7        29.88S
AKRON-CANTON   MOCLDY    57  42  57 S8        29.88S
WOOSTER        FAIR      56  43  61 S6        29.88S
MANSFIELD      FAIR      58  45  62 S10       29.86S
YOUNGSTOWN     FAIR      57  40  52 S6        29.89S
$$

OHZ042-051>053-060>062-070>072-077>081-280700-
  SOUTHWEST OHIO

CITY           SKY/WX    TMP DP  RH WIND       PRES   REMARKS
CINC-COVINGTON FAIR      57  48  72 S9        29.87F
CINC-LUNKEN    FAIR      54  51  90 CALM      29.88F
HAMILTON       FAIR      56  49  77 SW3       29.87S
DAYTON         FAIR      59  47  64 S12       29.85F
WRIGHT-PAT AFB FAIR      58  47  67 SW2       29.85S
DAYTON GENERAL FAIR      55  46  71 S8        29.85F
WILMINGTON     FAIR      54  47  77 S6        29.88S
$$

OHZ036-037-039>041-045>050-054>059-063>069-073>076-082>088-280700-
  CENTRAL AND SOUTHEAST OHIO

CITY           SKY/WX    TMP DP  RH WIND       PRES   REMARKS
COLUMBUS       FAIR      59  46  62 SE5       29.87S
OSU AIRPORT    FAIR      59  46  62 S7        29.86S
BOLTON FIELD   FAIR      54  47  77 S7        29.87S
RICKENBACK AFB FAIR      55  44  65 S6        29.87S
NEWARK         FAIR      47  44  90 CALM      29.88S
MARION         FAIR      55  45  68 S6        29.85S
LANCASTER      FAIR      52  47  83 S3        29.89S
ZANESVILLE     FAIR      50  44  80 CALM      29.89F
NEW PHILLY     FAIR      50  45  83 SE7       29.90S
$$




USA.gov is the U.S. government's official web portal to all federal, state and local government web resources and services.